Погода в Зимовники

Погода в Зимовники : погода сейчас, прогноз погоды и архив. Всё, что Вы хотите узнать о погоде в Зимовники!

Поиск расширенной информации на нашем сайте:

Другие новости

Новости СМИ2

Главная страница сайта

Новости сайта

02.10.2013

Напоминаем, что на нашем новом сайте вы можете получить высокодетализированные прогнозы погоды по пунктам России, СНГ и мира (включающие важные для авиации метеовеличины, такие как направление и скорость ветра, видимость, явления погоды, количество и форма облачности, нижняя и верхняя граница облачности), а также ознакомиться с разнообразными материалами по авиационной метеорологии и подборкой полезных ссылок на эту тему.

Сайт Метеоцентр.Азия посвящён разработке технологий оптимизации авиаметеорологического обслуживания, включая проектирование и перспективное создание нескольких автоматизированных авиаметеорологических систем:
- система выпуска высокодетальных прогностических карт явлений погоды для нижнего воздушного пространства по России и ближнему зарубежью;
- система верификации прогнозов TAF (выпускаемых синоптиками официальных АМСГ РФ и ближнего зарубежья) и AUTOTAF (выпускаемых сайтом Метеоцентр.Азия) - выявление ошибок, онлайн-сопоставление с фактической погодой METAR, автоматическое внесение коррективов в прогнозы при резком отклонении фактической погоды от прогноза, подсчёт оправдываемости прогнозов по элементам и в целом;
- система обработки, анализа и отображения авиаметеорологической информации для применения провайдерами метеорологической информации.


Погода в Зимовники - сегодня

Время (UTC), дата Ветер
(°,м/с) 
Видим.   Явления Облачность Т
(°С)
Тd
(°С)
f(%) Тe
(°С)
Pmin
(гПа)
dP
(гПа)
Po
(мм)
O2
(г/м3)
Тmin Tmax R s Состояние
почвы
00 22.03.17 330 (СЗ) 1000 м  дымка{ливн. осадки}  10/10 300 м 
[Sc]
+1.2 +0.7 96 +2  1014  754  302           
03 22.03.17 330 (СЗ) 1000 м  дымка{ливн. осадки}  10/10 300 м 
[Sc]
+1.2 +0.7 96 +1  1014.9  0.9  754  303  +0.7       
06 22.03.17 330 (СЗ) 10 км  {ливн. осадки}  10/3 600 м кучево-дожд., средняя 
[Cb cap|As trans]
+2.7 +0.9 88 +1  1015.2  0.3  755  301           
09 22.03.17 350 (С) 10 км    10/4 600 м кучево-дожд., средняя 
[Cb cap|Ac und]
+3.3 +0.1 80 +2  1015.7  0.5  755  301           
12 22.03.17 040 (СВ) 3{10}  10 км    10/3 600 м кучево-дожд., средняя 
[Cb cap|Ac und]
+4 +0 75 +3  1016.6  0.9  756  300           
15 22.03.17 030 (СВ) 10 км    10/0 средняя 
[Ac und]
+2.2 -0.3 84 +2  1017.9  1.3  757  302    +4.8       
18 22.03.17 030 (СВ) 10 км    10/10 300 м 
[Sc]
+1.3 -0.4 88 +1  1019.7  1.8  758  304           
21 22.03.17 030 (СВ) 4000 м  дымка  10/10 300 м 
[Sc]
+0.8 -0.6 90 +1  1020.6  0.7  759  305           
00 23.03.17 030 (СВ) 4000 м  дымка  10/10 300 м 
[Sc]
+0.6 -0.5 92 +1  1021.2  0.6  759  305           
03 23.03.17 360 (С) 4000 м  дымка  10/10 300 м 
[Sc]
+0.8 -0.6 90 +1  1022.3  1.1  760  305  +0.5         
06 23.03.17 010 (С) 10 км    10/10 300 м 
[Sc]
+1.8 -0.4 85 +1  1023  0.9  761  304           
09 23.03.17 010 (С) 10 км    10/10 300 м 
[Sc]
+3.7 +0.6 80 +5  1024.1  761  303           
12 23.03.17 350 (С) 10 км    10/10 300 м 
[Sc]
+5.3 +1 74 +6  1024.4  0.3  761  301           
15 23.03.17 100 (В) 10 км    10/10 300 м 
[Sc]
+5.3 +1.3 75 +6  1025.2  0.8  762  301    +5.7       
18 23.03.17 190 (Ю) 10 км    10/10 300 м 
[Sc]
+4.4 +1.6 82 +5  1026.4  1.2  763  302           
21 23.03.17 150 (ЮВ) 10 км    9/0 средняя 
[Ac trans]
+3.1 +1.3 88 +4  1026.5  0.1  763  304           
00 24.03.17 150 (ЮВ) 4000 м  дымка  9/0 средняя 
[Ac trans]
+2 +0.9 92 +3  1026.7  0.2  763  305           
03 24.03.17 140 (ЮВ) 2000 м  дымка  3/0 средняя 
[Ac trans]
+0.9 +0.1 94 1027.2  0.5  764  307  +0.4         
06 24.03.17 170 (Ю) 10 км    9/0 средняя 
[Ac trans]
+5.4 +0.8 72 +5  1027.7  0.5  764  302           
09 24.03.17 180 (Ю) 10 км    9/0 средняя 
[Ac trans]
+9.4 +2.3 61 +9  1026.2  -1.3  763  297           
12 24.03.17 230 (ЮЗ) 10 км    6/0 верхняя 
[Cs]
+12.4 +2 49 +13  1025  -1.1  762  293           
15 24.03.17 180 (Ю) 10 км    9/0 верхняя 
[Cc]
+9.9 +2.1 58 +10  1023.9  -1.2  761  296    +12.9       
18 24.03.17 170 (Ю) 10 км    ясно 
+5.3 +1.3 75 +5  1024.1  761  301           
21 24.03.17 180 (Ю) 10 км    9/0 средняя 
[Ac trans]
+5.9 +2.2 77 +5  1020.8  -3  759  299           
00 25.03.17 190 (Ю) 10 км    10/0 средняя 
[Ac und]
+5.5 +2.6 82 +4  1019.8  -1.2  758  299           
Время (UTC), дата Ветер
(°,м/с) 
Видим.   Явления Облачность Т
(°С)
Тd
(°С)
f(%) Тe
(°С)
Pmin
(гПа)
dP
(гПа)
Po
(мм)
O2
(г/м3)
Тmin Tmax R s Состояние
почвы

Для получения пояснительной информации подведите курсор к названию столбца.

ПОГОДА в Зимовники - архив

Всё, что Вы хотите узнать о погоде в Зимовники - удобно и подробно!

Выберите нужную дату (начиная с 1 января 2015* года) и нажмите кнопку "Найти".
Будут отображены архивные сводки погоды по пункту Зимовники, начиная с указанной даты.


Отображать данные в формате CSV (для использования в таблицах Excel)


Внимание! Наш архив погоды предназначен исключительно для личного некоммерческого использования в познавательных целях. Если Вам необходимы официальные справки о состоянии погоды (для производственных, юридических, коммерческих и т.п. целей), обращайтесь в органы Росгидромета.

*Примечание: данная дата относится к архиву по метеостанциям СССР (Россия, СНГ, Балтия).
Архив по метеостанциям Зарубежной Европы и Азии (кроме Китая) хранится 10 дней, по другим регионам земного шара (Китай, Африка, Америка, Австралия, Океания) - 1 день.

Зимовники - район местоположения метеостанции


Название, широта, долгота, высота метеостанции:
Зимовники 47.2°ш. 42.5°д. 72 м над ур. моря [Российская Федерация]

Дополнительная информация

В oтличие oт бoльшинства пoгoдных сайтoв мы публикуем пoдрoбную метеoинфoрмацию в детальнoм прoфессиoнальнoм фoрмате.

Характеристики температуры и влажнoсти вoздуха измеряются на высoте 2 м в тени вдали oт зданий и деревьев.
Скoрoсть ветра измеряется на высoте 10 м (на урoвне рoста челoвека скoрoсть ветра ниже в 1.5-2 раза). Если метеoстанция нахoдится в гoрoде или в лесу, тo скoрoсть ветра занижена на 2-4 м/с пo сравнению с oткрытым местoм. Скoрoсть ветра над акватoриями крупных рек и oзёр, а также на вершинах хoлмoв на 2-5 м/с выше, чем в oбычных услoвиях.
Атмoсфернoе давление в разных тoчках местнoсти мoжет значительнo oтличаться oт давления на метеoстанции, в зависимoсти oт услoвий рельефа (при пoдъёме на 10 м давление пoнижается примернo на 1 мм рт.ст.).